Regional Weather Roundup
Issued by NWS

Home | Current Version | Previous Version | Graphics & Text | Print | Product List | Glossary On
Versions: 1 2 3 4 5 6 7 8 9 10 11 12 13 14 15 16 17 18 19 20 21 22 23 24 25 26 27 28 29 30 31 32 33 34 35 36 37 38 39 40 41 42 43 44 45 46 47 48 49 50
000
ASUS43 KLMK 031502
RWRKY
KENTUCKY REGIONAL WEATHER ROUNDUP
NATIONAL WEATHER SERVICE LOUISVILLE KY
1100 AM EDT MON AUG 03 2015

NOTE "FAIR" INDICATES FEW OR NO CLOUDS BELOW 12,000 FEET
WITH NO SIGNIFICANT WEATHER AND/OR OBSTRUCTIONS TO VISIBILITY.

KYZ001>023-026-027-061>063-070>075-031600-
WESTERN AND SOUTH CENTRAL KENTUCKY

CITY           SKY/WX    TMP DP  RH WIND       PRES   REMARKS
PADUCAH        SUNNY     87  72  60 W5        29.91S HX  93
HENDERSON      SUNNY     84  70  61 W6        29.88S
OWENSBORO      SUNNY     86  72  62 W9        29.89S HX  92
HOPKINSVILLE   NOT AVBL
BOWLING GREEN  SUNNY     84  68  58 SW10      29.93S
GLASGOW        NOT AVBL
$$

KYZ024-025-028>034-038-045-046-053-031600-
NORTH CENTRAL KENTUCKY

CITY           SKY/WX    TMP DP  RH WIND       PRES   REMARKS
LOUISVILLE/SDF MOSUNNY   79  63  57 S12       29.91S
LOUISVILLE/LOU SUNNY     77  63  61 SE12      29.93R
FORT KNOX      NOT AVBL
$$

KYZ035>037-039>044-047>052-055>060-089>105-031600-
NORTHEAST KENTUCKY

CITY           SKY/WX    TMP DP  RH WIND       PRES   REMARKS
LEXINGTON      SUNNY     75  63  66 S14       29.95S
COVINGTON      NOT AVBL
FRANKFORT      SUNNY     75  63  66 SE13      29.93S
$$

KYZ054-064>069-076>088-106>120-031600-
SOUTHEAST KENTUCKY

CITY           SKY/WX    TMP DP  RH WIND       PRES   REMARKS
JACKSON        SUNNY     75  61  61 VRB3      29.98F
LONDON         SUNNY     78  61  55 E7        29.99F
SOMERSET       NOT AVBL
MIDDLESBORO    SUNNY     74  64  72 CALM      30.01R
MONTICELLO     MOSUNNY   80  69  69 N6        30.01R
$$



USA.gov is the U.S. government's official web portal to all federal, state and local government web resources and services.